Location: Goettingen
(51.5300°N, 9.9433°E)
Time: 03:39:50
(UTC+02:00)

ISS - Visible Passes

Search period start: 21 April 2024 00:00
Search period end: 01 May 2024 00:00
Orbit: 412 x 418 km, 51.6° (Epoch: 20 April)

Date Brightness Start Highest point End Pass type
(mag) Time Alt. Az. Time Alt. Az. Time Alt. Az.
23 Apr -1.1 04:45:34 10° SSE 04:46:32 11° SE 04:47:31 10° ESE visible
25 Apr -2.0 04:42:30 13° SSW 04:44:35 22° SE 04:47:14 10° E visible
26 Apr -1.6 03:55:04 15° SSE 03:55:33 15° SE 03:57:32 10° ESE visible
27 Apr -3.0 04:40:21 18° SW 04:42:28 39° SSE 04:45:37 10° E visible
28 Apr -2.6 03:52:42 27° SSE 03:53:11 28° SSE 03:56:07 10° E visible
29 Apr -1.6 03:04:57 17° ESE 03:04:57 17° ESE 03:06:25 10° E visible
29 Apr -3.7 04:37:45 17° WSW 04:40:10 65° SSE 04:43:29 10° E visible
30 Apr -3.5 03:49:54 39° SSW 03:50:41 49° SSE 03:53:55 10° E visible
